This demonstration page uses our WeatherBlox Daily Observations layout. Learn more.

41.55636, -103.73856

Hourly Observations for May 16, 2019

Temp ( °F °C ) Dew Point ( °F °C ) Humidity (%) Winds ( mph kmh ) Pressure ( in mb ) Visibility ( mi km ) Precip ( " mm )
12:53 am 00:53 Mostly Cloudy 56 13.3 49 9.4 77 77 VRB 3 6 29.71 1006 10 16.09344 0 0
1:53 am 01:53 Clear 57 13.9 47 8.3 69 69 E 9 15 29.65 1004 10 16.09344 0 0
2:53 am 02:53 Clear 52 11.1 46 7.8 80 80 Calm 29.68 1005 10 16.09344 0 0
3:53 am 03:53 Clear 50 10 46 7.8 86 86 NNE 7 11 29.71 1006 10 16.09344 0 0
4:53 am 04:53 Clear 51 10.6 46 7.8 83 83 NNW 3 6 29.71 1006 10 16.09344 0 0
5:53 am 05:53 Sunny 48 8.9 44 6.7 86 86 W 5 7 29.71 1006 10 16.09344 0 0
6:53 am 06:53 Sunny 53 11.7 47 8.3 80 80 NW 6 9 29.71 1006 10 16.09344 0 0
7:53 am 07:53 Sunny 62 16.7 49 9.4 62 62 WNW 9 15 29.71 1006 10 16.09344 0 0
8:53 am 08:53 Sunny 66 18.9 50 10 56 56 W 6 9 29.71 1006 10 16.09344 0 0
9:53 am 09:53 Sunny 70 21.1 51 10.6 51 51 VRB 5 7 29.71 1006 10 16.09344 0 0
10:53 am 10:53 Sunny 73 22.8 53 11.7 50 50 ENE 7 11 29.71 1006 10 16.09344 0 0
11:53 am 11:53 Sunny 77 25 53 11.7 43 43 NE 8 13 29.68 1005 10 16.09344 0 0
12:53 pm 12:53 Sunny 80 26.7 53 11.7 39 39 ENE 8 13 29.65 1004 10 16.09344 0 0
1:53 pm 13:53 Sunny 84 28.9 54 12.2 36 36 NE 13 20 29.62 1003 10 16.09344 0 0
2:53 pm 14:53 Mostly Cloudy 79 26.1 51 10.6 38 38 SE 14 22 29.65 1004 10 16.09344 0 0
3:53 pm 15:53 Sunny 80 26.7 51 10.6 37 37 ESE 6 9 29.59 1002 10 16.09344 0.01 0.254
4:53 pm 16:53 Mostly Sunny 81 27.2 48 8.9 32 32 E 15 24 29.59 1002 10 16.09344 0 0
5:53 pm 17:53 Sunny 78 25.6 53 11.7 42 42 ENE 16 26 29.56 1001 10 16.09344 0 0
6:53 pm 18:53 Sunny 76 24.4 51 10.6 42 42 E 18 30 29.56 1001 10 16.09344 0 0
7:53 pm 19:53 Sunny 73 22.8 54 12.2 51 51 E 17 28 29.5 999 10 16.09344 0 0
8:53 pm 20:53 Partly Cloudy 70 21.1 55 12.8 59 59 E 16 26 29.56 1001 10 16.09344 0 0
9:10 pm 21:10 Cloudy with Light Rain 70 21 55 13 60 60 SSW 9 15 29.53 1000 10 16.09344 0 0
9:53 pm 21:53 Clear 67 19.4 54 12.2 63 63 E 10 17 29.59 1002 10 16.09344 0.001 0.001
10:53 pm 22:53 Clear 64 17.8 54 12.2 70 70 NE 14 22 29.56 1001 10 16.09344 0 0
11:53 pm 23:53 Clear 60 15.6 55 12.8 84 84 ENE 15 24 29.56 1001 10 16.09344 0 0

Powered by AerisWeather